EW9837 Weather Reports


Display with metric or nautical units.
time (UTC)temp
F
wind
direction
speed
MPH
gust
MPH
rain 1hr
in
rain 24hr
in
rain mn
in
humidity
%
barometer
mb
20260510183107 66 257 7.0 19.0 0.00 0.00 0.00 56 1019.5
20260510181535 66 320 7.0 14.0 0.00 0.00 0.00 56 1019.3
20260510180029 66 317 8.0 14.0 0.00 0.00 0.00 57 1019.3
20260510174530 65 263 4.0 10.0 0.00 0.00 0.00 58 1019.3
20260510173142 65 272 3.0 10.0 0.00 0.00 0.00 59 1019.4
20260510171533 65 284 4.0 14.0 0.00 0.00 0.00 60 1019.2
20260510170035 63 287 3.0 9.0 0.00 0.00 0.00 63 1019.3
20260510164532 62 40 1.0 4.0 0.00 0.00 0.00 65 1019.3
20260510161536 60 355 0.0 3.0 0.00 0.00 0.00 70 1019.2
20260510154545 58 292 0.0 0.0 0.00 0.00 0.00 74 1019.0
20260510153036 57 271 0.0 1.0 0.00 0.00 0.00 77 1019.0
20260510151532 56 154 0.0 2.0 0.00 0.00 0.00 79 1018.9
20260510144532 52 68 1.0 2.0 0.00 0.00 0.00 90 1018.7
20260510143039 51 294 0.0 3.0 0.00 0.00 0.00 93 1018.4
20260510140036 46 166 2.0 4.0 0.00 0.00 0.00 95 1018.2
20260510134642 45 169 3.0 4.0 0.00 0.00 0.00 95 1018.4
20260510133038 43 149 3.0 4.0 0.00 0.00 0.00 95 1018.3
20260510131534 42 176 2.0 4.0 0.00 0.00 0.00 95 1018.2
20260510130034 41 230 1.0 4.0 0.00 0.00 0.00 95 1018.2
20260510124606 40 174 2.0 5.0 0.00 0.00 0.00 95 1018.2
20260510123036 40 154 3.0 5.0 0.00 0.00 0.00 95 1018.4
20260510121535 40 165 3.0 5.0 0.00 0.00 0.00 94 1018.4
20260510120036 39 206 3.0 5.0 0.00 0.00 0.00 94 1018.2
20260510114611 39 157 1.0 3.0 0.00 0.00 0.00 94 1018.3
20260510113036 40 145 2.0 4.0 0.00 0.00 0.00 94 1018.2
20260510111533 40 178 1.0 4.0 0.00 0.00 0.00 93 1018.1
20260510104534 40 139 3.0 4.0 0.00 0.00 0.00 93 1018.3
20260510103030 40 168 3.0 4.0 0.00 0.00 0.00 92 1018.4
20260510101610 40 177 2.0 4.0 0.00 0.00 0.00 92 1018.2
20260510100035 41 164 3.0 4.0 0.00 0.00 0.00 92 1018.2
20260510094536 41 174 3.0 4.0 0.00 0.00 0.00 92 1018.2
20260510093035 41 180 3.0 4.0 0.00 0.00 0.00 91 1018.2
20260510091530 42 179 2.0 4.0 0.00 0.00 0.00 91 1018.4
20260510090032 42 155 3.0 4.0 0.00 0.00 0.00 91 1018.6
20260510083033 43 202 0.0 3.0 0.00 0.00 0.00 91 1018.8
20260510081535 43 159 1.0 3.0 0.00 0.00 0.00 90 1018.9
20260510080112 43 137 2.0 3.0 0.00 0.00 0.00 89 1019.1
20260510074538 44 148 3.0 4.0 0.00 0.00 0.00 88 1019.1
20260510073108 45 161 3.0 4.0 0.00 0.00 0.00 88 1019.1
20260510071536 45 177 0.0 3.0 0.00 0.00 0.00 87 1019.2
20260510070035 46 179 0.0 2.0 0.00 0.00 0.00 87 1019.2
20260510063037 46 137 3.0 4.0 0.00 0.00 0.00 85 1019.1
20260510061534 47 168 2.0 4.0 0.00 0.00 0.00 82 1019.0
20260510060111 48 206 1.0 3.0 0.00 0.00 0.00 83 1019.1
20260510054612 48 167 2.0 4.0 0.00 0.00 0.00 82 1019.0
20260510053044 49 135 3.0 4.0 0.00 0.00 0.00 80 1019.0
20260510051535 50 185 1.0 3.0 0.00 0.00 0.00 77 1018.9
20260510050037 51 180 0.0 0.0 0.00 0.00 0.00 75 1018.8
20260510044535 53 173 1.0 4.0 0.00 0.00 0.00 74 1018.7
20260510043036 53 155 3.0 4.0 0.00 0.00 0.00 74 1018.7
20260510041531 54 161 3.0 4.0 0.00 0.00 0.00 73 1018.6
20260510040149 57 169 3.0 4.0 0.00 0.00 0.00 72 1018.5
20260510034610 59 180 2.0 4.0 0.00 0.00 0.00 69 1018.4
20260510033035 62 180 2.0 3.0 0.00 0.00 0.00 66 1018.3
20260510030033 66 180 0.0 2.0 0.00 0.00 0.00 62 1018.4
20260510024537 68 181 1.0 2.0 0.00 0.00 0.00 58 1018.4
20260510021534 70 315 0.0 0.0 0.00 0.00 0.00 46 1018.4
20260510020034 72 315 0.0 0.0 0.00 0.00 0.00 40 1018.4
20260510014536 73 315 0.0 3.0 0.00 0.00 0.00 34 1018.7
20260510013035 72 318 0.0 2.0 0.00 0.00 0.00 34 1018.8
20260510011535 73 331 2.0 5.0 0.00 0.00 0.00 33 1018.9
20260510010037 73 337 3.0 6.0 0.00 0.00 0.00 34 1019.0
20260510004609 74 346 4.0 7.0 0.00 0.00 0.00 35 1019.0
20260510003109 74 342 4.0 9.0 0.00 0.00 0.00 37 1019.0
20260510001648 74 339 5.0 9.0 0.00 0.00 0.00 38 1019.1
20260510000037 73 330 4.0 8.0 0.00 0.00 0.00 38 1019.1
20260509234530 75 328 4.0 10.0 0.00 0.00 0.00 37 1019.2
20260509230032 74 300 3.0 7.0 0.00 0.00 0.00 39 1020.0
20260509224537 73 319 4.0 7.0 0.00 0.00 0.00 39 1020.2
20260509223034 73 323 5.0 10.0 0.00 0.00 0.00 41 1020.5
20260509221536 73 342 4.0 10.0 0.00 0.00 0.00 44 1020.6
20260509220037 73 326 4.0 10.0 0.00 0.00 0.00 44 1020.8
20260509214535 73 323 3.0 8.0 0.00 0.00 0.00 45 1020.9
20260509211536 71 7 3.0 10.0 0.00 0.00 0.00 47 1021.3
20260509210036 72 333 4.0 10.0 0.00 0.00 0.00 47 1021.5
20260509204538 72 348 4.0 9.0 0.00 0.00 0.00 49 1021.6
20260509201532 69 343 4.0 10.0 0.00 0.00 0.00 51 1021.9
20260509200044 70 360 5.0 9.0 0.00 0.00 0.00 51 1022.1
20260509200036 70 6 4.0 10.0 0.00 0.00 0.00 50 1022.3
20260509191533 69 7 4.0 8.0 0.00 0.00 0.00 49 1022.5
20260509190107 68 34 3.0 8.0 0.00 0.00 0.00 49 1022.7
20260509184536 67 11 3.0 8.0 0.00 0.00 0.00 49 1022.8